Overview Statistics Trail Chart Weather Telemetry Raw packets
 

This is the latest recevied weather packets stored in our database for station/object K6GMW. If no packets are shown the sender has not sent any weather packets the latest 10 day(s).

<< 69 70 71 72 73 74 75 >>
Time Temp. Humidity Pressure Rain* Wind** Luminosity Snow
1788136237 36.11° C 34% 1014.1 hPa 0 mm - 17 W/m² -
1788135935 36.67° C 33% 1014.2 hPa 0 mm - 23 W/m² -
1788135631 36.67° C 33% 1014.2 hPa 0 mm - 28 W/m² -
1788135326 36.67° C 33% 1014 hPa 0 mm - 34 W/m² -
1788135023 36.67° C 32% 1014.1 hPa 0 mm - 40 W/m² -
1788134719 37.22° C 32% 1014.1 hPa 0 mm - 45 W/m² -
1788134419 37.22° C 31% 1014 hPa 0 mm - 51 W/m² -
1788134118 37.78° C 30% 1014 hPa 0 mm - 57 W/m² -
1788133813 37.78° C 29% 1014.1 hPa 0 mm - 64 W/m² -
1788133508 38.33° C 29% 1014.2 hPa 0 mm - 71 W/m² -
1788133203 38.33° C 28% 1014.2 hPa 0 mm - 79 W/m² -
1788132899 38.33° C 29% 1014.3 hPa 0 mm - 87 W/m² -
1788132594 38.33° C 27% 1014.1 hPa 0 mm - 97 W/m² -
1788132290 38.33° C 27% 1014.3 hPa 0 mm - 111 W/m² -
1788131987 38.89° C 27% 1014.3 hPa 0 mm - 127 W/m² -
1788131682 38.89° C 27% 1014.1 hPa 0 mm - 140 W/m² -
1788131381 38.89° C 28% 1014 hPa 0 mm - 152 W/m² -
1788131077 38.89° C 28% 1014 hPa 0 mm - 167 W/m² -
1788130776 38.33° C 28% 1014 hPa 0 mm - 183 W/m² -
1788130472 38.33° C 27% 1014.1 hPa 0 mm - 201 W/m² -
1788130171 38.89° C 29% 1014.3 hPa 0 mm - 220 W/m² -
1788129870 38.33° C 28% 1014.1 hPa 0 mm - 240 W/m² -
1788129567 38.89° C 28% 1014.1 hPa 0 mm - 262 W/m² -
1788129263 39.44° C 29% 1014.2 hPa 0 mm - 286 W/m² -
1788128962 38.89° C 29% 1014.2 hPa 0 mm - 305 W/m² -

* Rain latest hour (hover to see other rain measurements)
** Current wind speed in m/s (hover to see current wind gust speed)